Location: Newark
(21.8258°S, 114.1586°E)
Time: 05:32:51
(UTC+00:00)

Hubble Space Telescope - Pass Details

Date: 12 December 2019
Orbit: 536 x 540 km, 28.5° (Epoch: 20 January)

Event Time Altitude Azimuth Distance (km) Brightness Sun altitude
Rises 12:49:59 0° 256° (WSW) 2,683 5.4 -22.5°
Reaches altitude 10° 12:52:25 10° 246° (WSW) 1,793 4.5 -23.0°
Maximum altitude 12:56:09 32° 182° (S) 948 2.3 -23.6°
Enters shadow 12:57:27 26° 147° (SSE) 1,085 2.3 -23.9°
